Location: ??????
(55.6500°N, 37.8000°E)
Time: 05:37:28
(UTC+00:00)

Cosmos 44 Rocket - Visible Passes

Search period start: 13 July 2024 00:00
Search period end: 23 July 2024 00:00
Orbit: 645 x 739 km, 65.1° (Epoch: 12 July)

Date Brightness Start Highest point End Pass type
(mag) Time Alt. Az. Time Alt. Az. Time Alt. Az.
13 Jul 5.3 22:47:55 10° SSE 22:51:17 18° ESE 22:54:39 10° ENE visible
14 Jul 4.2 23:26:57 11° S 23:31:30 40° SE 23:36:10 10° NE visible
15 Jul 5.0 22:27:51 12° SSE 22:31:09 21° ESE 22:34:54 10° ENE visible
16 Jul 3.4 00:06:56 10° SW 00:12:03 85° SE 00:17:05 10° NE visible
16 Jul 5.7 21:30:54 10° ESE 21:31:04 10° ESE 21:31:14 10° ESE visible
16 Jul 3.9 23:07:22 14° SSW 23:11:27 47° SE 23:16:14 10° NE visible
17 Jul 4.8 22:08:11 16° SSE 22:11:02 25° ESE 22:15:05 10° ENE visible
17 Jul 3.4 23:46:57 10° SW 23:52:03 85° NW 23:57:05 10° NE visible
18 Jul 5.5 21:08:59 10° SE 21:10:53 12° ESE 21:12:53 10° E visible
18 Jul 3.7 22:47:37 17° SSW 22:51:23 54° SE 22:56:16 10° NE visible
19 Jul 4.5 21:48:21 19° SSE 21:50:56 29° ESE 21:55:13 10° ENE visible
19 Jul 3.5 23:26:59 10° SW 23:32:04 75° NW 23:37:04 10° NE visible
20 Jul 5.2 20:49:03 13° SE 20:50:43 15° ESE 20:53:28 10° ENE visible
20 Jul 3.5 22:27:40 18° SSW 22:31:20 63° SE 22:36:17 10° NE visible
21 Jul 4.4 00:08:13 10° W 00:13:04 43° NNW 00:17:49 10° NE visible
21 Jul 4.2 21:28:19 21° S 21:30:50 34° ESE 21:35:19 10° ENE visible
21 Jul 3.7 23:07:01 10° WSW 23:12:05 67° NW 23:17:03 10° NE visible
22 Jul 5.0 20:28:55 15° SE 20:30:33 18° ESE 20:33:49 10° ENE visible
22 Jul 3.3 22:07:31 18° SW 22:11:18 73° SE 22:16:17 10° NE visible
22 Jul 4.5 23:48:22 10° W 23:53:08 40° NNW 23:57:48 10° NE visible
